"Pseudo-MPEC" for ZTF10FV

Created 2026 Aug 26 0:35:13 UT using Find_Orb

Click here for an explanation of pseudo-MPECs

 
 Astrometry: 
     ZTF10FV 0C2026 08 19.23067920 39 12.034-18 09 51.04   ~8OFo 19.48gUNEOCPI41
     ZTF10FV 0C2026 08 19.23102720 39 17.445-18 09 55.54   ~8OFo 19.48gUNEOCPI41
     ZTF10FV*0C2026 08 19.26240320 47 07.855-18 15 29.15   ~8OFo 17.15RUNEOCPI41
     ZTF10FV 0C2026 08 19.26275020 47 12.867-18 15 31.71   ~8OFo 17.15RUNEOCPI41
     ZTF10FV 0C2026 08 19.27459920 49 59.658-18 16 53.20   ~8OFo 16.99iUNEOCPI41
     ZTF10FV 0C2026 08 19.27494620 50 04.490-18 16 55.27   ~8OFo 16.99iUNEOCPI41

Station data:
(I41) Palomar Mountain--ZTF  (N33.357336 W116.859780)  US/California.
   Observers B. T. Bolin, Z. T. F. Collaboration. Measurers B. T. Bolin,
   Z.-Y. Lin, F. J. Masci. 1.2-m f/2.4 Schmidt.

Orbital elements:  ZTF10FV
   Perigee 2026 Aug 18.782063 +/- 0.00544 TT = 18:46:10.2 (JD 2461271.282063)
Epoch 2026 Aug 19.0 TT = JDT 2461271.5                           AutoNEOCP
q 99655.09438 +/- 4595              (J2000 equator)
H   31.86 G 0.15                    Peri.  194.729787 +/- 1.7
                                    Node    53.508710 +/- 0.17
e   2.85789967 +/- 0.343            Incl.   16.929478 +/- 0.054
From 6 observations 2026 Aug. 19 (63.7 min); mean residual 0".22
Residuals in arcseconds: 
260819 I41  .37+  .11-    260819 I41  .29-  .08-    260819 I41  .21-  .01+    
260819 I41  .38-  .11+    260819 I41  .32+  .08+    260819 I41  .19+  .01-    

Ephemerides (geocentric):
Date (UTC) HH   RA             Dec           delta  r     elong  mag " sig PA
---- --------  ------------   ------------  ------ ------ -----  --- --------
2026 08 26 01  23 41 30.446   -14 25 04.43  .01231 1.0222 159.2 23.4 3012  79
2026 08 26 02  23 41 36.044   -14 24 49.30  .01237 1.0222 159.2 23.4 3016  79
2026 08 26 03  23 41 41.575   -14 24 34.31  .01244 1.0223 159.2 23.4 3020  79
2026 08 26 04  23 41 47.042   -14 24 19.46  .01251 1.0223 159.3 23.4 3024  79
2026 08 26 05  23 41 52.444   -14 24 04.74  .01258 1.0224 159.3 23.4 3028  79
2026 08 26 06  23 41 57.783   -14 23 50.14  .01265 1.0224 159.3 23.4 3032  79
2026 08 26 07  23 42 03.060   -14 23 35.68  .01271 1.0225 159.3 23.4 3036  79
2026 08 26 08  23 42 08.275   -14 23 21.34  .01278 1.0225 159.3 23.5 3040  79
2026 08 26 09  23 42 13.431   -14 23 07.13  .01285 1.0226 159.3 23.5 3044  79
2026 08 26 10  23 42 18.527   -14 22 53.03  .01292 1.0227 159.3 23.5 3047  79
2026 08 26 11  23 42 23.564   -14 22 39.06  .01299 1.0227 159.3 23.5 3051  79
2026 08 26 12  23 42 28.544   -14 22 25.21  .01306 1.0228 159.4 23.5 3055  79
2026 08 26 13  23 42 33.467   -14 22 11.48  .01312 1.0228 159.4 23.5 3059  79
2026 08 26 14  23 42 38.334   -14 21 57.86  .01319 1.0229 159.4 23.5 3062  79
2026 08 26 15  23 42 43.146   -14 21 44.35  .01326 1.0229 159.4 23.5 3066  79
2026 08 26 16  23 42 47.903   -14 21 30.96  .01333 1.0230 159.4 23.5 3069  79
2026 08 26 17  23 42 52.607   -14 21 17.68  .01340 1.0230 159.4 23.6 3073  79
2026 08 26 18  23 42 57.258   -14 21 04.50  .01346 1.0231 159.4 23.6 3077  79
2026 08 26 19  23 43 01.858   -14 20 51.44  .01353 1.0232 159.5 23.6 3080  79
2026 08 26 20  23 43 06.406   -14 20 38.48  .01360 1.0232 159.5 23.6 3083  79
2026 08 26 21  23 43 10.903   -14 20 25.63  .01367 1.0233 159.5 23.6 3087  79
2026 08 26 22  23 43 15.351   -14 20 12.88  .01374 1.0233 159.5 23.6 3090  79
2026 08 26 23  23 43 19.749   -14 20 00.23  .01380 1.0234 159.5 23.6 3094  79
2026 08 27 00  23 43 24.099   -14 19 47.69  .01387 1.0234 159.5 23.6 3097  79
2026 08 27 01  23 43 28.401   -14 19 35.24  .01394 1.0235 159.6 23.6 3100  79
2026 08 27 02  23 43 32.656   -14 19 22.89  .01401 1.0235 159.6 23.6 3104  79
2026 08 27 03  23 43 36.865   -14 19 10.64  .01408 1.0236 159.6 23.7 3107  79
2026 08 27 04  23 43 41.027   -14 18 58.48  .01414 1.0237 159.6 23.7 3110  79
2026 08 27 05  23 43 45.145   -14 18 46.42  .01421 1.0237 159.6 23.7 3113  79
2026 08 27 06  23 43 49.217   -14 18 34.45  .01428 1.0238 159.6 23.7 3116  79
2026 08 27 07  23 43 53.246   -14 18 22.57  .01435 1.0238 159.7 23.7 3120  79
2026 08 27 08  23 43 57.231   -14 18 10.78  .01442 1.0239 159.7 23.7 3123  79
2026 08 27 09  23 44 01.174   -14 17 59.09  .01448 1.0239 159.7 23.7 3126  79
2026 08 27 10  23 44 05.074   -14 17 47.48  .01455 1.0240 159.7 23.7 3129  79
2026 08 27 11  23 44 08.932   -14 17 35.96  .01462 1.0241 159.7 23.7 3132  79
2026 08 27 12  23 44 12.749   -14 17 24.52  .01469 1.0241 159.7 23.7 3135  79
2026 08 27 13  23 44 16.525   -14 17 13.17  .01476 1.0242 159.8 23.8 3138  79
2026 08 27 14  23 44 20.261   -14 17 01.90  .01482 1.0242 159.8 23.8 3141  79
2026 08 27 15  23 44 23.957   -14 16 50.72  .01489 1.0243 159.8 23.8 3144  79
2026 08 27 16  23 44 27.615   -14 16 39.62  .01496 1.0243 159.8 23.8 3146  79
2026 08 27 17  23 44 31.233   -14 16 28.60  .01503 1.0244 159.8 23.8 3149  79
2026 08 27 18  23 44 34.813   -14 16 17.66  .01510 1.0244 159.9 23.8 3152  79
2026 08 27 19  23 44 38.356   -14 16 06.80  .01516 1.0245 159.9 23.8 3155  79
2026 08 27 20  23 44 41.861   -14 15 56.01  .01523 1.0246 159.9 23.8 3158  79
2026 08 27 21  23 44 45.330   -14 15 45.31  .01530 1.0246 159.9 23.8 3161  79
2026 08 27 22  23 44 48.762   -14 15 34.68  .01537 1.0247 159.9 23.8 3163  79
2026 08 27 23  23 44 52.158   -14 15 24.12  .01544 1.0247 160.0 23.8 3166  79
2026 08 28 00  23 44 55.519   -14 15 13.64  .01551 1.0248 160.0 23.9 3169  79